Weather History for PACV - August, 2013

Change the Weather History Date:

Friday, August 30, 2013

  Actual Average Record
Temperature  
Mean Temperature 56 °F -  
Max Temperature 68 °F 59 °F 72 °F (1974)
Min Temperature 46 °F 43 °F 30 °F (1984)
Degree Days  
Heating Degree Days 9    
Growing Degree Days 6 (Base 50)    
Moisture  
Dew Point 48 °F    
Average Humidity 76    
Maximum Humidity 93    
Minimum Humidity 52    
Precipitation  
Precipitation 0.00 in - - ()
Sea Level Pressure  
Sea Level Pressure 29.90 in    
Wind  
Wind Speed 1 mph (SSE)    
Max Wind Speed 5 mph    
Max Gust Speed -    
Visibility 10 miles    
Events      
Averages and records for this station are not official NWS values.
T = Trace of Precipitation, MM = Missing Value Source: NWS Daily Summary

Daily Weather History Graph

Daily Weather History Graph

Search for Another Location

Airport or City:

Trip Planner

Search our weather history database for the weather conditions in past years. The results will help you decide how hot, cold, wet, or windy it might be!

Date:

Astronomy

Aug. 30, 2013 Rise Set
Actual Time 6:31 AM AKDT 8:51 PM AKDT
Civil Twilight 5:45 AM AKDT 9:37 PM AKDT
Nautical Twilight 4:44 AM AKDT 10:37 PM AKDT
Astronomical Twilight 3:20 AM AKDT 11:58 PM AKDT
Moon 12:25 AM AKDT (8/30) 6:02 PM AKDT (8/30)
Length of Visible Light 15h 51m
Length of Day
14h 19m
Waning Crescent, 28% of the Moon is Illuminated
Aug 30
Waning Crescent
Sep 5
New
Sep 12
First Quarter
Sep 19
Full
Sep 26
Last Quarter

Hourly Weather History & Observations

Time (AKDT) Temp. Windchill Dew Point Humidity Pressure Visibility Wind Dir Wind Speed Gust Speed Precip Events Conditions
12:53 AM 51.1 °F - 48.0 °F 89% 29.85 in 10.0 mi Calm Calm - N/A   Mostly Cloudy
1:53 AM 48.0 °F - 46.0 °F 93% 29.85 in 10.0 mi Calm Calm - N/A   Mostly Cloudy
2:53 AM 48.0 °F - 45.0 °F 89% 29.85 in 10.0 mi Calm Calm - N/A   Mostly Cloudy
3:53 AM 48.0 °F - 46.0 °F 93% 29.85 in 10.0 mi Calm Calm - N/A   Mostly Cloudy
4:53 AM 48.9 °F - 46.0 °F 90% 29.85 in 10.0 mi Calm Calm - N/A   Overcast
5:53 AM 46.0 °F 44.8 °F 43.0 °F 89% 29.86 in 10.0 mi West 3.5 mph - N/A   Mostly Cloudy
6:53 AM 46.9 °F - 44.1 °F 90% 29.86 in 10.0 mi Calm Calm - N/A   Mostly Cloudy
7:53 AM 50.0 °F - 46.0 °F 86% 29.88 in 10.0 mi Calm Calm - N/A   Mostly Cloudy
8:53 AM 52.0 °F - 46.0 °F 80% 29.88 in 10.0 mi Calm Calm - N/A   Mostly Cloudy
9:53 AM 55.9 °F - 46.9 °F 72% 29.88 in 10.0 mi Calm Calm - N/A   Mostly Cloudy
10:53 AM 59.0 °F - 46.0 °F 62% 29.90 in 10.0 mi Calm Calm - N/A   Mostly Cloudy
11:53 AM 62.1 °F - 51.1 °F 67% 29.90 in 10.0 mi Calm Calm - N/A   Mostly Cloudy
12:53 PM 64.0 °F - 50.0 °F 60% 29.91 in 10.0 mi Calm Calm - N/A   Mostly Cloudy
1:53 PM 66.9 °F - 48.9 °F 52% 29.92 in 10.0 mi Variable 3.5 mph - N/A   Mostly Cloudy
2:53 PM 66.0 °F - 48.9 °F 54% 29.92 in 10.0 mi Calm Calm - N/A   Mostly Cloudy
3:53 PM 64.9 °F - 51.1 °F 61% 29.93 in 10.0 mi South 4.6 mph - N/A   Scattered Clouds
4:53 PM 63.0 °F - 53.1 °F 70% 29.93 in 10.0 mi South 4.6 mph - N/A   Overcast
5:53 PM 61.0 °F - 53.1 °F 75% 29.93 in 10.0 mi SE 3.5 mph - N/A   Overcast
6:53 PM 61.0 °F - 51.1 °F 70% 29.94 in 9.0 mi Calm Calm - N/A   Mostly Cloudy
7:53 PM 57.0 °F - 48.0 °F 72% 29.94 in 10.0 mi East 3.5 mph - N/A   Mostly Cloudy
8:53 PM 55.0 °F - 46.0 °F 72% 29.95 in 10.0 mi Calm Calm - N/A   Mostly Cloudy
9:53 PM 54.0 °F - 45.0 °F 72% 29.96 in 10.0 mi Calm Calm - N/A   Overcast
10:53 PM 53.1 °F - 45.0 °F 74% 29.96 in 10.0 mi ENE 3.5 mph - 0.00 in   Mostly Cloudy
11:53 PM 51.1 °F - 46.0 °F 83% 29.98 in 10.0 mi Calm Calm - 0.00 in   Overcast